• en France
  • Liste des pays
  • À 7 jours
  • Température de l'eau
  • Carte satellitaire
  • Carte météo
  • Widgets météo
  • user-avatar
    Se connecter

    Météo par heure à Hobart

    Ce jour, 23 Octobre, Mardi

    Heure Température Précipitation Vent Pression Humidité
    00:00 +12°C° 0 mm 2 m/s 742 mmHg 80%
    01:00 +10°C° 0 mm 2 m/s 742 mmHg 85%
    02:00 +10°C° 0 mm 2 m/s 742 mmHg 86%
    03:00 +9°C° 0 mm 2 m/s 742 mmHg 88%
    04:00 +10°C° 0 mm 2 m/s 741 mmHg 83%
    05:00 +12°C° 0 mm 2 m/s 741 mmHg 80%
    06:00 +12°C° 0 mm 3 m/s 742 mmHg 77%
    07:00 +12°C° 0 mm 3 m/s 742 mmHg 74%
    08:00 +13°C° 0 mm 3 m/s 742 mmHg 65%
    09:00 +14°C° 0 mm 4 m/s 742 mmHg 56%
    10:00 +16°C° 0 mm 5 m/s 742 mmHg 45%
    11:00 +16°C° 0 mm 6 m/s 742 mmHg 46%
    12:00 +15°C° 0 mm 6 m/s 742 mmHg 48%
    13:00 +15°C° 0 mm 6 m/s 742 mmHg 49%
    14:00 +14°C° 0 mm 6 m/s 743 mmHg 48%
    15:00 +14°C° 0 mm 6 m/s 743 mmHg 46%
    16:00 +13°C° 0 mm 6 m/s 743 mmHg 45%
    17:00 +10°C° 0 mm 6 m/s 744 mmHg 50%
    18:00 +9°C° 0 mm 5 m/s 745 mmHg 56%
    19:00 +7°C° 0 mm 5 m/s 746 mmHg 61%
    20:00 +6°C° 0 mm 5 m/s 746 mmHg 67%
    21:00 +5°C° 0 mm 5 m/s 747 mmHg 74%
    22:00 +4°C° 0 mm 4 m/s 748 mmHg 80%
    23:00 +3°C° 0 mm 4 m/s 748 mmHg 81%

    Demain, 24 Octobre, Mercredi

    Heure Température Précipitation Vent Pression Humidité
    00:00 +3°C° 0 mm 4 m/s 749 mmHg 83%
    01:00 +3°C° 0 mm 4 m/s 749 mmHg 84%
    02:00 +3°C° 0 mm 4 m/s 749 mmHg 86%
    03:00 +1°C° 0 mm 4 m/s 750 mmHg 87%
    04:00 +1°C° 0 mm 4 m/s 750 mmHg 88%
    05:00 +4°C° 0 mm 4 m/s 751 mmHg 80%
    06:00 +5°C° 0 mm 5 m/s 751 mmHg 73%
    07:00 +6°C° 0 mm 5 m/s 752 mmHg 66%
    08:00 +8°C° 0 mm 4 m/s 752 mmHg 59%
    09:00 +10°C° 0 mm 4 m/s 753 mmHg 52%
    10:00 +12°C° 0 mm 4 m/s 753 mmHg 45%
    11:00 +12°C° 0 mm 4 m/s 753 mmHg 43%
    12:00 +13°C° 0 mm 3 m/s 753 mmHg 41%
    13:00 +14°C° 0 mm 3 m/s 753 mmHg 39%
    14:00 +14°C° 0 mm 3 m/s 753 mmHg 39%
    15:00 +14°C° 0 mm 3 m/s 753 mmHg 40%
    16:00 +14°C° 0 mm 3 m/s 753 mmHg 41%
    17:00 +12°C° 0 mm 3 m/s 753 mmHg 50%
    18:00 +10°C° 0 mm 3 m/s 753 mmHg 59%
    19:00 +8°C° 0 mm 2 m/s 754 mmHg 67%
    20:00 +8°C° 0 mm 2 m/s 754 mmHg 71%
    21:00 +7°C° 0 mm 2 m/s 754 mmHg 75%
    22:00 +7°C° 0 mm 2 m/s 754 mmHg 78%
    23:00 +6°C° 0 mm 2 m/s 754 mmHg 83%

    Après-demain, 25 Octobre, Jeudi

    Heure Température Précipitation Vent Pression Humidité
    00:00 +4°C° 0 mm 3 m/s 753 mmHg 87%
    01:00 +3°C° 0 mm 3 m/s 753 mmHg 91%
    02:00 +4°C° 0 mm 3 m/s 752 mmHg 89%
    03:00 +4°C° 0 mm 3 m/s 751 mmHg 87%
    04:00 +4°C° 0 mm 4 m/s 751 mmHg 85%
    05:00 +5°C° 0 mm 4 m/s 751 mmHg 79%
    06:00 +7°C° 0 mm 4 m/s 750 mmHg 73%
    07:00 +8°C° 0 mm 4 m/s 750 mmHg 67%
    08:00 +11°C° 0 mm 3 m/s 750 mmHg 59%
    09:00 +12°C° 0 mm 3 m/s 749 mmHg 51%
    10:00 +14°C° 0 mm 3 m/s 749 mmHg 44%
    11:00 +14°C° 0 mm 3 m/s 748 mmHg 44%
    12:00 +16°C° 0 mm 3 m/s 747 mmHg 44%
    13:00 +16°C° 0 mm 3 m/s 747 mmHg 43%
    14:00 +14°C° 0 mm 4 m/s 746 mmHg 49%
    15:00 +14°C° 0 mm 4 m/s 745 mmHg 54%
    16:00 +13°C° 0 mm 5 m/s 745 mmHg 60%
    17:00 +12°C° 0.1 mm 5 m/s 745 mmHg 68%
    18:00 +10°C° 0.1 mm 5 m/s 745 mmHg 76%
    19:00 +8°C° 0.1 mm 5 m/s 745 mmHg 83%
    20:00 +8°C° 0.1 mm 5 m/s 745 mmHg 86%
    21:00 +7°C° 0.1 mm 5 m/s 745 mmHg 89%
    22:00 +6°C° 0.1 mm 5 m/s 746 mmHg 92%
    23:00 +6°C° 0.1 mm 5 m/s 746 mmHg 91%

    26 Octobre, Vendredi

    Heure Température Précipitation Vent Pression Humidité
    00:00 +5°C° 0.1 mm 5 m/s 746 mmHg 89%
    01:00 +4°C° 0.1 mm 6 m/s 746 mmHg 88%
    02:00 +5°C° 0 mm 5 m/s 746 mmHg 89%
    03:00 +3°C° 0 mm 5 m/s 746 mmHg 89%
    04:00 +3°C° 0 mm 5 m/s 746 mmHg 90%
    05:00 +5°C° 0 mm 5 m/s 746 mmHg 87%
    06:00 +4°C° 0 mm 6 m/s 747 mmHg 83%
    07:00 +5°C° 0 mm 6 m/s 747 mmHg 80%
    08:00 +7°C° 0 mm 6 m/s 747 mmHg 75%
    09:00 +8°C° 0 mm 6 m/s 747 mmHg 69%
    10:00 +9°C° 0 mm 6 m/s 747 mmHg 64%
    11:00 +10°C° 0 mm 6 m/s 747 mmHg 59%
    12:00 +12°C° 0 mm 5 m/s 747 mmHg 54%
    13:00 +13°C° 0 mm 5 m/s 747 mmHg 50%
    14:00 +13°C° 0 mm 5 m/s 747 mmHg 53%
    15:00 +12°C° 0 mm 5 m/s 746 mmHg 56%
    16:00 +12°C° 0 mm 5 m/s 746 mmHg 59%
    17:00 +10°C° 0 mm 4 m/s 746 mmHg 64%
    18:00 +8°C° 0 mm 4 m/s 747 mmHg 69%
    19:00 +8°C° 0 mm 3 m/s 747 mmHg 75%
    20:00 +7°C° 0 mm 3 m/s 747 mmHg 80%
    21:00 +5°C° 0 mm 3 m/s 747 mmHg 85%
    22:00 +6°C° 0 mm 2 m/s 746 mmHg 90%
    23:00 +6°C° 0 mm 2 m/s 746 mmHg 89%

    27 Octobre, Samedi

    Heure Température Précipitation Vent Pression Humidité
    00:00 +6°C° 0 mm 2 m/s 745 mmHg 88%
    01:00 +5°C° 0 mm 3 m/s 745 mmHg 88%
    02:00 +7°C° 0.1 mm 2 m/s 744 mmHg 88%
    03:00 +7°C° 0.1 mm 2 m/s 743 mmHg 89%
    04:00 +7°C° 0.1 mm 2 m/s 743 mmHg 90%
    05:00 +8°C° 0 mm 3 m/s 742 mmHg 85%
    06:00 +7°C° 0 mm 4 m/s 742 mmHg 81%
    07:00 +8°C° 0 mm 4 m/s 742 mmHg 76%
    08:00 +10°C° 0 mm 5 m/s 741 mmHg 73%
    09:00 +12°C° 0 mm 5 m/s 740 mmHg 70%
    10:00 +13°C° 0 mm 5 m/s 740 mmHg 67%
    11:00 +13°C° 0.2 mm 6 m/s 739 mmHg 66%
    12:00 +12°C° 0.2 mm 7 m/s 739 mmHg 66%
    13:00 +12°C° 0.2 mm 8 m/s 738 mmHg 65%
    14:00 +12°C° 0.2 mm 8 m/s 738 mmHg 69%
    15:00 +11°C° 0.2 mm 8 m/s 738 mmHg 72%
    16:00 +10°C° 0.2 mm 8 m/s 738 mmHg 76%
    17:00 +8°C° 0.2 mm 9 m/s 740 mmHg 79%
    18:00 +6°C° 0.2 mm 9 m/s 741 mmHg 82%
    19:00 +5°C° 0.2 mm 9 m/s 742 mmHg 86%
    20:00 +4°C° 0.1 mm 8 m/s 743 mmHg 86%
    21:00 +2°C° 0.1 mm 8 m/s 744 mmHg 87%
    22:00 +1°C° 0.1 mm 8 m/s 745 mmHg 87%
    23:00 +2°C° 0.1 mm 7 m/s 746 mmHg 87%

    28 Octobre, Dimanche

    Heure Température Précipitation Vent Pression Humidité
    00:00 0°C° 0.1 mm 7 m/s 746 mmHg 86%
    01:00 +1°C° 0.1 mm 6 m/s 747 mmHg 86%
    02:00 +1°C° 0.1 mm 6 m/s 747 mmHg 86%
    03:00 -1°C° 0.1 mm 6 m/s 747 mmHg 87%
    04:00 0°C° 0.1 mm 5 m/s 748 mmHg 88%
    05:00 +2°C° 0 mm 6 m/s 748 mmHg 81%
    06:00 +3°C° 0 mm 6 m/s 749 mmHg 74%
    07:00 +5°C° 0 mm 6 m/s 750 mmHg 67%
    08:00 +7°C° 0 mm 6 m/s 750 mmHg 61%
    09:00 +8°C° 0 mm 6 m/s 750 mmHg 55%
    10:00 +9°C° 0 mm 5 m/s 751 mmHg 49%
    11:00 +10°C° 0 mm 5 m/s 751 mmHg 46%
    12:00 +12°C° 0 mm 5 m/s 751 mmHg 44%
    13:00 +13°C° 0 mm 5 m/s 751 mmHg 41%
    14:00 +13°C° 0 mm 4 m/s 751 mmHg 42%
    15:00 +13°C° 0 mm 4 m/s 751 mmHg 42%
    16:00 +13°C° 0 mm 4 m/s 751 mmHg 43%
    17:00 +11°C° 0 mm 4 m/s 751 mmHg 53%
    18:00 +9°C° 0 mm 3 m/s 751 mmHg 64%
    19:00 +5°C° 0 mm 3 m/s 752 mmHg 74%
    20:00 +4°C° 0 mm 3 m/s 752 mmHg 80%
    21:00 +3°C° 0 mm 3 m/s 752 mmHg 85%
    22:00 +3°C° 0 mm 2 m/s 752 mmHg 91%
    23:00 +3°C° 0 mm 2 m/s 752 mmHg 92%

    29 Octobre, Lundi

    Heure Température Précipitation Vent Pression Humidité
    00:00 +2°C° 0 mm 2 m/s 752 mmHg 94%
    01:00 +2°C° 0 mm 2 m/s 752 mmHg 95%
    02:00 +2°C° 0 mm 2 m/s 752 mmHg 96%
    03:00 +2°C° 0 mm 2 m/s 752 mmHg 96%
    04:00 +2°C° 0 mm 2 m/s 752 mmHg 96%
    05:00 +3°C° 0 mm 2 m/s 752 mmHg 88%
    06:00 +5°C° 0 mm 2 m/s 753 mmHg 80%
    07:00 +7°C° 0 mm 2 m/s 753 mmHg 73%
    08:00 +10°C° 0 mm 2 m/s 753 mmHg 62%
    09:00 +14°C° 0 mm 2 m/s 753 mmHg 51%
    10:00 +17°C° 0 mm 2 m/s 752 mmHg 41%
    11:00 +18°C° 0 mm 2 m/s 752 mmHg 36%
    12:00 +20°C° 0 mm 2 m/s 752 mmHg 32%
    13:00 +23°C° 0 mm 2 m/s 751 mmHg 27%
    14:00 +21°C° 0 mm 2 m/s 751 mmHg 30%
    15:00 +21°C° 0 mm 3 m/s 751 mmHg 32%
    16:00 +20°C° 0 mm 3 m/s 751 mmHg 34%
    17:00 +17°C° 0 mm 3 m/s 751 mmHg 48%
    18:00 +13°C° 0 mm 2 m/s 751 mmHg 61%
    19:00 +9°C° 0 mm 2 m/s 751 mmHg 75%
    20:00 +8°C° 0 mm 2 m/s 751 mmHg 80%
    21:00 +7°C° 0 mm 2 m/s 751 mmHg 85%
    22:00 +7°C° 0 mm 1 m/s 751 mmHg 91%
    23:00 +6°C° 0 mm 2 m/s 750 mmHg 87%
    Voir plus